Weather History for Malmo Sturup, Sweden

Change the Weather History Date:

Sunday, December 30, 2012

  Actual Average (EKCH) Record (EKCH)
Temperature  
Mean Temperature 40 °F -  
Max Temperature 42 °F 35 °F 48 °F (2006)
Min Temperature 37 °F 28 °F 15 °F (2002)
Degree Days  
Heating Degree Days 26    
Moisture  
Dew Point 38 °F    
Average Humidity 91    
Maximum Humidity 100    
Minimum Humidity 81    
Precipitation  
Precipitation 0.00 in - - ()
Sea Level Pressure  
Sea Level Pressure 29.66 in    
Wind  
Wind Speed 14 mph ()    
Max Wind Speed 26 mph    
Max Gust Speed 38 mph    
Visibility 6.2 miles    
Events Rain    
Averages and records for this station are not official NWS values.
T = Trace of Precipitation, MM = Missing Value Source: Averaged Metar Reports

Daily Weather History Graph

Daily Weather History Graph

Search for Another Location

Airport:

Trip Planner

Search our weather history database for the weather conditions in past years. The results will help you decide how hot, cold, wet, or windy it might be!

Date:

Astronomy

Dec. 30, 2012 Rise Set
Actual Time 8:34 AM CET 3:43 PM CET
Civil Twilight 7:48 AM CET 4:29 PM CET
Nautical Twilight 7:00 AM CET 5:17 PM CET
Astronomical Twilight 6:15 AM CET 6:02 PM CET
Moon 6:25 PM CET (12/30) 9:09 AM CET (12/30)
Length of Visible Light 8h 41m
Length of Day
7h 08m
Waning Gibbous, 96% of the Moon is Illuminated
Dec 30
Waning Gibbous
Jan 5
Last Quarter
Jan 11
New
Jan 19
First Quarter
Jan 27
Full

Hourly Weather History & Observations

Time (CET) Temp. Windchill Dew Point Humidity Pressure Visibility Wind Dir Wind Speed Gust Speed Precip Events Conditions
12:20 AM 41.0 °F 33.5 °F 39.2 °F 93% 29.74 in 6.2 mi SSE 13.8 mph - N/A   Mostly Cloudy
12:50 AM 41.0 °F 33.5 °F 39.2 °F 93% 29.71 in 6.2 mi South 13.8 mph - N/A   Mostly Cloudy
1:20 AM 41.0 °F 33.1 °F 39.2 °F 93% 29.71 in 6.2 mi South 15.0 mph - N/A   Scattered Clouds
2:20 AM 41.0 °F 33.9 °F 39.2 °F 93% 29.68 in 6.2 mi South 12.7 mph - N/A   Partly Cloudy
3:20 AM 41.0 °F 33.9 °F 39.2 °F 93% 29.68 in 6.2 mi South 12.7 mph - N/A   Partly Cloudy
3:50 AM 41.0 °F 33.1 °F 39.2 °F 93% 29.68 in 6.2 mi SSW 15.0 mph - N/A   Mostly Cloudy
4:20 AM 41.0 °F 33.5 °F 39.2 °F 93% 29.65 in 6.2 mi SSW 13.8 mph - N/A   Overcast
5:50 AM 42.8 °F 35.8 °F 39.2 °F 87% 29.65 in 6.2 mi SSW 13.8 mph - N/A   Overcast
6:20 AM 42.8 °F 35.4 °F 39.2 °F 87% 29.65 in 6.2 mi SSW 15.0 mph - N/A   Mostly Cloudy
6:50 AM 42.8 °F 34.5 °F 39.2 °F 87% 29.65 in 6.2 mi SSW 18.4 mph - N/A   Mostly Cloudy
7:20 AM 42.8 °F 35.1 °F 41.0 °F 93% 29.65 in 6.2 mi SSW 16.1 mph - N/A   Light Drizzle
7:50 AM 42.8 °F 35.4 °F 39.2 °F 87% 29.65 in 6.2 mi SW 15.0 mph - N/A Rain Light Rain
8:20 AM 42.8 °F 35.1 °F 39.2 °F 87% 29.65 in 6.2 mi SSW 16.1 mph - N/A   Mostly Cloudy
8:50 AM 42.8 °F 36.2 °F 39.2 °F 87% 29.65 in 6.2 mi SSW 12.7 mph - N/A   Mostly Cloudy
9:20 AM 41.0 °F 34.3 °F 41.0 °F 100% 29.65 in 6.2 mi SSW 11.5 mph - N/A Rain Light Rain
9:50 AM 41.0 °F 34.7 °F 41.0 °F 100% 29.65 in 6.2 mi SSW 10.4 mph - N/A Rain Light Rain
10:20 AM 41.0 °F 34.3 °F 41.0 °F 100% 29.65 in 5.0 mi SSW 11.5 mph - N/A   Mostly Cloudy
10:50 AM 41.0 °F 33.5 °F 41.0 °F 100% 29.65 in 6.2 mi SSW 13.8 mph - N/A   Scattered Clouds
11:20 AM 42.8 °F 36.2 °F 41.0 °F 93% 29.65 in 6.2 mi SSW 12.7 mph - N/A   Scattered Clouds
11:50 AM 42.8 °F 35.1 °F 41.0 °F 93% 29.65 in 6.2 mi SSW 16.1 mph - N/A   Scattered Clouds
12:20 PM 42.8 °F 34.0 °F 41.0 °F 93% 29.65 in 6.2 mi SSW 20.7 mph - N/A   Mostly Cloudy
12:50 PM 42.8 °F 34.0 °F 41.0 °F 93% 29.65 in 6.2 mi SSW 20.7 mph - N/A   Mostly Cloudy
1:20 PM 42.8 °F 32.9 °F 39.2 °F 87% 29.65 in 6.2 mi SW 26.5 mph 38.0 mph N/A Rain Rain Showers
1:50 PM 41.0 °F 32.2 °F 37.4 °F 87% 29.65 in 6.2 mi SW 18.4 mph - N/A   Mostly Cloudy
2:20 PM 41.0 °F 33.5 °F 37.4 °F 87% 29.65 in 6.2 mi SW 13.8 mph - N/A   Mostly Cloudy
2:50 PM 41.0 °F 32.8 °F 39.2 °F 93% 29.65 in 6.2 mi SSW 16.1 mph - N/A   Mostly Cloudy
3:20 PM 41.0 °F 32.5 °F 37.4 °F 87% 29.65 in 6.2 mi SW 17.3 mph - N/A   Scattered Clouds
3:50 PM 41.0 °F 32.8 °F 37.4 °F 87% 29.65 in 6.2 mi SW 16.1 mph - N/A   Partly Cloudy
4:20 PM 41.0 °F 33.5 °F 37.4 °F 87% 29.65 in 6.2 mi SW 13.8 mph - N/A   Mostly Cloudy
4:50 PM 41.0 °F 32.8 °F 37.4 °F 87% 29.65 in 6.2 mi SW 16.1 mph - N/A   Scattered Clouds
5:20 PM 41.0 °F 32.8 °F 35.6 °F 81% 29.65 in 6.2 mi SW 16.1 mph - N/A   Partly Cloudy
5:50 PM 41.0 °F 31.4 °F 35.6 °F 81% 29.65 in 6.2 mi SW 21.9 mph - N/A   Scattered Clouds
6:20 PM 37.4 °F 27.2 °F 33.8 °F 87% 29.65 in 6.2 mi SW 19.6 mph - N/A   Scattered Clouds
6:50 PM 37.4 °F 27.5 °F 33.8 °F 87% 29.65 in 6.2 mi SW 18.4 mph - N/A   Scattered Clouds
7:20 PM 39.2 °F 29.6 °F 35.6 °F 87% 29.68 in 6.2 mi WSW 19.6 mph 32.2 mph N/A   Mostly Cloudy
7:50 PM 39.2 °F 29.0 °F 35.6 °F 87% 29.68 in 6.2 mi SW 21.9 mph - N/A Rain Light Rain
8:20 PM 37.4 °F 27.8 °F 35.6 °F 93% 29.68 in 6.2 mi SW 17.3 mph - N/A   Mostly Cloudy
8:50 PM 37.4 °F 27.8 °F 35.6 °F 93% 29.68 in 6.2 mi SW 17.3 mph - N/A   Mostly Cloudy
9:20 PM 37.4 °F 27.8 °F 35.6 °F 93% 29.68 in 6.2 mi SW 17.3 mph - N/A   Partly Cloudy
9:50 PM 37.4 °F 28.2 °F 33.8 °F 87% 29.68 in 6.2 mi SW 16.1 mph - N/A   Mostly Cloudy
10:20 PM 37.4 °F 28.2 °F 35.6 °F 93% 29.68 in 6.2 mi SW 16.1 mph - N/A   Mostly Cloudy
10:50 PM 37.4 °F 28.5 °F 33.8 °F 87% 29.68 in 6.2 mi SW 15.0 mph - N/A   Partly Cloudy
11:20 PM 37.4 °F 28.5 °F 35.6 °F 93% 29.71 in 6.2 mi SW 15.0 mph - N/A   Mostly Cloudy
11:50 PM 37.4 °F 29.3 °F 35.6 °F 93% 29.68 in 6.2 mi SW 12.7 mph - N/A   Mostly Cloudy